Change the Weather History Date:

Saturday, March 15, 2014

  Actual Average Record
Temperature  
Mean Temperature 14 °F -  
Max Temperature 26 °F 32 °F 39 °F (2005)
Min Temperature 1 °F 16 °F -11 °F (2003)
Degree Days  
Heating Degree Days 52    
Moisture  
Dew Point 16 °F    
Average Humidity 91    
Maximum Humidity 100    
Minimum Humidity 56    
Precipitation  
Precipitation 0.00 in - - ()
Sea Level Pressure  
Sea Level Pressure 29.81 in    
Wind  
Wind Speed 15 mph ()    
Max Wind Speed 21 mph    
Max Gust Speed 33 mph    
Visibility 2.2 miles    
Events Rain , Snow    
Averages and records for this station are not official NWS values.
T = Trace of Precipitation, MM = Missing Value Source: Averaged Metar Reports

Daily Weather History Graph

Daily Weather History Graph

Search for Another Location

Airport or City:

Trip Planner

Search our weather history database for the weather conditions in past years. The results will help you decide how hot, cold, wet, or windy it might be!

Date:

Astronomy

Mar. 15, 2014 Rise Set
Actual Time 6:28 AM EDT 6:19 PM EDT
Civil Twilight 5:55 AM EDT 6:51 PM EDT
Nautical Twilight 5:18 AM EDT 7:29 PM EDT
Astronomical Twilight 4:39 AM EDT 8:08 PM EDT
Moon 5:33 PM EDT (3/15) 5:41 AM EDT (3/15)
Length of Visible Light 12h 55m
Length of Day
11h 51m
Waxing Gibbous, 99% of the Moon is Illuminated
Mar 15
Waxing Gibbous
Mar 16
Full
Mar 23
Last Quarter
Mar 30
New
Apr 7
First Quarter

Hourly Weather History & Observations

Time (EDT) Temp. Windchill Dew Point Humidity Pressure Visibility Wind Dir Wind Speed Gust Speed Precip Events Conditions
12:00 AM 1.4 °F -16.1 °F -5.8 °F 72% 29.99 in 9.0 mi ENE 12.7 mph - N/A   Mostly Cloudy
1:00 AM 3.2 °F -13.9 °F -5.8 °F 66% 30.00 in 9.0 mi ENE 12.7 mph - N/A   Overcast
2:00 AM 5.0 °F -11.6 °F -5.8 °F 61% 30.01 in 9.0 mi ENE 12.7 mph - N/A   Overcast
2:31 AM 6.8 °F -8.6 °F -5.8 °F 56% 30.01 in 9.0 mi East 11.5 mph 17.3 mph N/A Snow Light Snow
3:00 AM 5.0 °F -11.6 °F -2.2 °F 72% 30.00 in 9.0 mi ENE 12.7 mph - N/A Snow Light Snow
4:00 AM 6.8 °F -10.7 °F -0.4 °F 72% 29.98 in 9.0 mi ENE 15.0 mph - N/A Snow Light Snow
4:34 AM 6.8 °F -10.0 °F 1.4 °F 79% 29.96 in 6.0 mi ENE 13.8 mph 19.6 mph N/A Snow Light Snow
4:35 AM 6.8 °F -10.7 °F 1.4 °F 79% 29.96 in 5.0 mi ENE 15.0 mph - N/A Snow Light Snow
4:46 AM 6.8 °F -11.3 °F 1.4 °F 79% 29.97 in 6.0 mi ENE 16.1 mph - N/A Snow Light Snow
4:57 AM 6.8 °F -11.3 °F 3.2 °F 85% 29.96 in 5.0 mi ENE 16.1 mph - N/A Snow Light Snow
5:00 AM 6.8 °F -11.8 °F 3.2 °F 85% 29.96 in 4.0 mi ENE 17.3 mph - N/A Snow Light Snow
5:03 AM 6.8 °F -11.3 °F 3.2 °F 85% 29.96 in 2.5 mi ENE 16.1 mph - N/A Snow Light Snow
5:07 AM 8.6 °F -8.9 °F 3.2 °F 79% 29.96 in 1.8 mi ENE 16.1 mph - N/A Snow Light Snow
5:20 AM 8.6 °F -8.9 °F 5.0 °F 85% 29.96 in 2.0 mi ENE 16.1 mph - N/A Snow Light Snow
5:46 AM 8.6 °F -8.9 °F 5.0 °F 85% 29.96 in 3.0 mi ENE 16.1 mph - N/A Snow Light Snow
6:00 AM 8.6 °F -8.9 °F 5.0 °F 85% 29.96 in 3.0 mi ENE 16.1 mph - N/A Snow Light Snow
6:17 AM 8.6 °F -8.9 °F 6.8 °F 92% 29.96 in 6.0 mi ENE 16.1 mph - N/A Snow Light Snow
6:24 AM 8.6 °F -8.3 °F 6.8 °F 92% 29.95 in 5.0 mi ENE 15.0 mph - N/A Snow Light Snow
6:36 AM 8.6 °F -7.7 °F 6.8 °F 92% 29.95 in 2.2 mi ENE 13.8 mph - N/A Snow Light Snow
6:50 AM 8.6 °F -8.3 °F 6.8 °F 92% 29.95 in 1.8 mi ENE 15.0 mph - N/A Snow Light Snow
7:00 AM 10.4 °F -6.0 °F 6.8 °F 85% 29.95 in 1.5 mi ENE 15.0 mph - N/A Snow Light Snow
7:15 AM 10.4 °F -5.4 °F 6.8 °F 85% 29.96 in 2.0 mi ENE 13.8 mph - N/A Snow Light Snow
7:46 AM 10.4 °F -6.6 °F 8.6 °F 92% 29.95 in 1.8 mi ENE 16.1 mph - N/A Snow Light Snow
8:00 AM 12.2 °F -3.1 °F 8.6 °F 85% 29.95 in 1.0 mi ENE 13.8 mph 19.6 mph N/A Snow Light Snow
8:06 AM 12.2 °F -2.5 °F 8.6 °F 85% 29.95 in 1.0 mi ENE 12.7 mph 18.4 mph N/A Snow Light Snow
8:32 AM 14.0 °F -1.4 °F 10.4 °F 86% 29.94 in 0.8 mi East 15.0 mph - N/A Snow Light Snow
9:00 AM 14.0 °F -3.0 °F 12.2 °F 93% 29.93 in 0.6 mi ENE 18.4 mph - N/A Snow Light Snow
9:02 AM 14.0 °F -2.5 °F 12.2 °F 93% 29.93 in 0.6 mi East 17.3 mph 23.0 mph N/A Snow Light Snow
9:10 AM 14.0 °F -2.5 °F 12.2 °F 93% 29.92 in 1.0 mi East 17.3 mph 26.5 mph N/A Snow Light Snow
9:18 AM 14.0 °F -2.5 °F 12.2 °F 93% 29.92 in 2.0 mi East 17.3 mph 25.3 mph N/A Snow Light Snow
9:20 AM 15.8 °F -0.2 °F 12.2 °F 86% 29.92 in 1.8 mi ENE 17.3 mph 25.3 mph N/A Snow Light Snow
9:34 AM 15.8 °F -1.1 °F 14.0 °F 93% 29.91 in 0.8 mi ENE 19.6 mph - N/A Snow Light Snow
9:47 AM 15.8 °F 0.9 °F 14.0 °F 93% 29.91 in 0.8 mi East 15.0 mph 25.3 mph N/A Snow Light Snow
9:53 AM 15.8 °F -0.6 °F 14.0 °F 93% 29.91 in 1.0 mi East 18.4 mph 24.2 mph N/A Snow Light Snow
10:00 AM 17.6 °F 2.7 °F 14.0 °F 86% 29.90 in 2.0 mi East 16.1 mph 24.2 mph N/A Snow Light Snow
10:08 AM 17.6 °F 3.7 °F 15.8 °F 93% 29.90 in 1.8 mi East 13.8 mph 21.9 mph N/A Snow Light Snow
10:28 AM 21.2 °F 7.3 °F 19.4 °F 93% 29.89 in 2.0 mi East 16.1 mph 24.2 mph N/A Snow Light Snow
10:30 AM 21.2 °F 7.3 °F 19.4 °F 93% 29.89 in 3.0 mi ESE 16.1 mph 24.2 mph N/A Snow Light Snow
10:35 AM 21.2 °F 7.8 °F 19.4 °F 93% 29.89 in 2.5 mi ESE 15.0 mph 23.0 mph N/A Snow Light Snow
10:40 AM 21.2 °F 6.8 °F 19.4 °F 93% 29.89 in 1.8 mi ESE 17.3 mph 27.6 mph N/A Snow Light Snow
10:56 AM 21.2 °F 7.3 °F 19.4 °F 93% 29.89 in 0.8 mi ESE 16.1 mph 31.1 mph N/A Snow Light Snow
11:00 AM 21.2 °F 6.8 °F 19.4 °F 93% 29.88 in 0.6 mi ESE 17.3 mph 31.1 mph N/A Snow Light Snow
12:00 PM 21.2 °F 6.0 °F 19.4 °F 93% 29.86 in 0.4 mi ESE 19.6 mph 29.9 mph N/A Snow Snow
12:43 PM 21.2 °F 6.0 °F 21.2 °F 100% 29.84 in 0.2 mi East 19.6 mph 32.2 mph N/A Snow Heavy Snow
12:59 PM 23.0 °F 8.0 °F 21.2 °F 93% 29.83 in 0.2 mi East 20.7 mph 29.9 mph N/A Snow Heavy Snow
1:00 PM 23.0 °F 8.0 °F 21.2 °F 93% 29.83 in 0.2 mi East 20.7 mph 29.9 mph N/A Snow Heavy Snow
1:09 PM 23.0 °F 9.2 °F 21.2 °F 93% 29.82 in 0.2 mi East 17.3 mph 31.1 mph N/A Snow Heavy Snow
1:11 PM 23.0 °F 8.3 °F 21.2 °F 93% 29.82 in 0.2 mi East 19.6 mph 29.9 mph N/A Snow Heavy Snow
1:37 PM 23.0 °F 8.0 °F 21.2 °F 93% 29.79 in 0.1 mi East 20.7 mph 33.4 mph N/A Snow Heavy Snow
1:43 PM 23.0 °F 8.7 °F 21.2 °F 93% 29.79 in 0.2 mi East 18.4 mph 31.1 mph N/A Snow Heavy Snow
1:47 PM 23.0 °F 8.0 °F 21.2 °F 93% 29.79 in 0.4 mi East 20.7 mph 31.1 mph N/A Snow Snow
2:00 PM 23.0 °F 8.0 °F 21.2 °F 93% 29.78 in 0.5 mi East 20.7 mph 28.8 mph N/A Snow Snow
2:45 PM 24.8 °F 11.1 °F 23.0 °F 93% 29.80 in 0.4 mi ESE 18.4 mph 29.9 mph N/A Snow Snow
3:00 PM 24.8 °F 12.9 °F 23.0 °F 93% 29.80 in 0.4 mi East 13.8 mph 23.0 mph N/A Snow Snow
3:27 PM 24.8 °F 11.1 °F 23.0 °F 93% 29.78 in 0.4 mi East 18.4 mph 26.5 mph N/A Snow Snow
3:51 PM 24.8 °F 11.1 °F 23.0 °F 93% 29.77 in 0.5 mi East 18.4 mph 27.6 mph N/A Snow Snow
4:00 PM 24.8 °F 10.7 °F 23.0 °F 93% 29.76 in 0.5 mi East 19.6 mph 29.9 mph N/A Snow Snow
4:56 PM 24.8 °F 11.1 °F 23.0 °F 93% 29.74 in 0.8 mi East 18.4 mph 25.3 mph N/A Snow Light Snow
4:57 PM 24.8 °F 11.1 °F 23.0 °F 93% 29.74 in 0.8 mi East 18.4 mph 25.3 mph N/A Snow Light Snow
5:00 PM 24.8 °F 11.1 °F 23.0 °F 93% 29.74 in 0.8 mi East 18.4 mph 25.3 mph N/A Snow Light Snow
5:18 PM 24.8 °F 10.3 °F 24.8 °F 100% 29.73 in 0.8 mi East 20.7 mph 28.8 mph N/A Snow Light Snow
5:33 PM 24.8 °F 11.1 °F 24.8 °F 100% 29.73 in 0.8 mi East 18.4 mph 28.8 mph N/A Snow Light Snow
6:00 PM 24.8 °F 10.7 °F 24.8 °F 100% 29.72 in 0.8 mi East 19.6 mph 28.8 mph N/A Snow Light Snow
6:14 PM 24.8 °F 11.5 °F 24.8 °F 100% 29.71 in 0.8 mi East 17.3 mph 26.5 mph N/A Snow Light Snow
6:34 PM 24.8 °F 10.7 °F 24.8 °F 100% 29.70 in 0.8 mi East 19.6 mph 26.5 mph N/A Snow Light Snow
6:48 PM 26.6 °F 13.4 °F 24.8 °F 93% 29.70 in 0.8 mi ENE 18.4 mph 27.6 mph N/A Snow Light Snow
6:50 PM 26.6 °F 13.1 °F 24.8 °F 93% 29.70 in 1.0 mi ENE 19.6 mph 27.6 mph N/A Snow Light Snow
7:00 PM 26.6 °F 13.4 °F 24.8 °F 93% 29.70 in 1.2 mi ENE 18.4 mph 24.2 mph N/A Snow Light Snow
7:30 PM 24.8 °F 11.5 °F 23.0 °F 93% 29.69 in 1.0 mi NE 17.3 mph - N/A Snow Light Snow
7:35 PM 24.8 °F 11.1 °F 23.0 °F 93% 29.68 in 1.0 mi NE 18.4 mph - N/A Snow Light Snow
7:38 PM 23.0 °F 8.7 °F 23.0 °F 100% 29.68 in 1.0 mi NE 18.4 mph - N/A Snow Light Snow
8:00 PM 23.0 °F 8.7 °F 23.0 °F 100% 29.68 in 1.0 mi ENE 18.4 mph - N/A Snow Light Snow
8:10 PM 24.8 °F 11.9 °F 23.0 °F 93% 29.68 in 1.0 mi NE 16.1 mph 21.9 mph N/A Snow Light Snow
8:46 PM 24.8 °F 10.3 °F 23.0 °F 93% 29.65 in 1.0 mi ENE 20.7 mph - N/A Snow Light Snow
9:00 PM 24.8 °F 11.1 °F 23.0 °F 93% 29.65 in 1.2 mi ENE 18.4 mph 24.2 mph N/A Snow Light Snow
9:52 PM 24.8 °F 11.1 °F 24.8 °F 100% 29.62 in 2.0 mi ENE 18.4 mph 25.3 mph N/A Snow Light Snow
10:00 PM 24.8 °F 11.5 °F 24.8 °F 100% 29.62 in 2.2 mi NE 17.3 mph 24.2 mph N/A Snow Light Snow
10:15 PM 24.8 °F 10.7 °F 24.8 °F 100% 29.61 in 2.0 mi NE 19.6 mph - N/A Snow Light Snow
10:19 PM 26.6 °F 16.8 °F 24.8 °F 93% 29.61 in 2.2 mi NE 10.4 mph 23.0 mph N/A Snow Light Snow
10:22 PM 26.6 °F 16.8 °F 24.8 °F 93% 29.61 in 2.5 mi ENE 10.4 mph 23.0 mph N/A Rain , Snow Light Snow
10:27 PM 26.6 °F 12.7 °F 24.8 °F 93% 29.60 in 3.0 mi ENE 20.7 mph - N/A Rain , Snow Light Snow
10:28 PM 26.6 °F 12.7 °F 24.8 °F 93% 29.60 in 3.0 mi ENE 20.7 mph - N/A Rain Light Freezing Rain
11:00 PM 26.6 °F 13.4 °F 26.6 °F 100% 29.58 in 3.0 mi NE 18.4 mph - N/A Rain Light Freezing Rain
11:28 PM 26.6 °F 15.2 °F 26.6 °F 100% 29.57 in 3.0 mi NE 13.8 mph 19.6 mph N/A Rain , Snow Light Snow
11:29 PM 26.6 °F 15.2 °F 26.6 °F 100% 29.57 in 3.0 mi NE 13.8 mph 19.6 mph N/A Snow Light Snow
11:30 PM 26.6 °F 14.7 °F 26.6 °F 100% 29.56 in 2.5 mi NE 15.0 mph - N/A Snow Light Snow
11:34 PM 26.6 °F 14.7 °F 26.6 °F 100% 29.56 in 2.2 mi NE 15.0 mph - N/A Snow Light Snow
11:38 PM 26.6 °F 14.3 °F 26.6 °F 100% 29.56 in 1.8 mi NE 16.1 mph - N/A Snow Light Snow
11:54 PM 26.6 °F 14.3 °F 26.6 °F 100% 29.55 in 1.8 mi NE 16.1 mph - N/A Snow Light Snow